| time (UTC) | temp F | wind direction | speed MPH | gust MPH | rain 1hr in | rain 24hr in | rain mn in | humidity % | barometer mb |
| 20260510080034 | 45 | 336 | 2.0 | 5.0 | 0.00 | 0.08 | 0.00 | 64 | 1012.5 |
| 20260510074541 | 46 | 342 | 0.0 | 4.0 | 0.00 | 0.08 | 0.00 | 63 | 1012.3 |
| 20260510073040 | 46 | 34 | 3.0 | 7.0 | 0.00 | 0.08 | 0.00 | 63 | 1012.0 |
| 20260510071536 | 46 | 274 | 0.0 | 2.0 | 0.00 | 0.08 | 0.00 | 67 | 1011.6 |
| 20260510070047 | 46 | 24 | 2.0 | 5.0 | 0.00 | 0.08 | 0.00 | 68 | 1011.3 |
| 20260510064544 | 47 | 321 | 0.0 | 1.0 | 0.00 | 0.08 | 0.00 | 67 | 1011.2 |
| 20260510063041 | 48 | 0 | 1.0 | 3.0 | 0.00 | 0.08 | 0.00 | 64 | 1011.1 |
| 20260510061540 | 49 | 23 | 1.0 | 5.0 | 0.00 | 0.08 | 0.00 | 66 | 1011.0 |
| 20260510060049 | 48 | 0 | 0.0 | 6.0 | 0.00 | 0.08 | 0.00 | 68 | 1010.9 |
| 20260510054537 | 48 | 0 | 0.0 | 0.0 | 0.00 | 0.08 | 0.00 | 68 | 1010.8 |
| 20260510053036 | 49 | 0 | 0.0 | 0.0 | 0.00 | 0.08 | 0.00 | 67 | 1010.5 |
| 20260510051601 | 50 | 309 | 0.0 | 1.0 | 0.00 | 0.08 | 0.00 | 66 | 1010.0 |
| 20260510050040 | 50 | 0 | 0.0 | 1.0 | 0.00 | 0.08 | 0.00 | 66 | 1009.8 |
| 20260510044538 | 50 | 0 | 0.0 | 1.0 | 0.00 | 0.08 | 0.00 | 66 | 1009.5 |
| 20260510043049 | 51 | 0 | 0.0 | 0.0 | 0.00 | 0.08 | 0.00 | 64 | 1009.3 |
| 20260510041537 | 52 | 0 | 0.0 | 1.0 | 0.00 | 0.08 | 0.00 | 62 | 1009.0 |
| 20260510040042 | 53 | 0 | 0.0 | 1.0 | 0.00 | 0.08 | 0.00 | 59 | 1008.9 |
| 20260510034532 | 54 | 353 | 0.0 | 2.0 | 0.00 | 0.08 | 0.08 | 57 | 1008.9 |
| 20260510033041 | 55 | 309 | 0.0 | 4.0 | 0.00 | 0.08 | 0.08 | 56 | 1008.6 |
| 20260510031605 | 56 | 0 | 0.0 | 2.0 | 0.00 | 0.08 | 0.08 | 54 | 1008.4 |
| 20260510030038 | 57 | 265 | 1.0 | 5.0 | 0.00 | 0.08 | 0.08 | 53 | 1008.2 |
| 20260510024545 | 58 | 328 | 2.0 | 6.0 | 0.00 | 0.08 | 0.08 | 51 | 1008.1 |
| 20260510023043 | 58 | 311 | 3.0 | 10.0 | 0.00 | 0.08 | 0.08 | 50 | 1007.8 |
| 20260510021544 | 60 | 338 | 5.0 | 11.0 | 0.00 | 0.08 | 0.08 | 49 | 1007.4 |
| 20260510020042 | 61 | 302 | 4.0 | 10.0 | 0.00 | 0.08 | 0.08 | 48 | 1007.0 |
| 20260510014541 | 61 | 311 | 5.0 | 11.0 | 0.00 | 0.08 | 0.08 | 50 | 1006.4 |
| 20260510013038 | 62 | 288 | 3.0 | 10.0 | 0.00 | 0.08 | 0.08 | 53 | 1005.7 |
| 20260510011543 | 61 | 279 | 0.0 | 2.0 | 0.00 | 0.08 | 0.08 | 54 | 1005.2 |
| 20260510010050 | 61 | 302 | 1.0 | 5.0 | 0.00 | 0.08 | 0.08 | 55 | 1004.9 |
| 20260510004542 | 62 | 0 | 0.0 | 2.0 | 0.00 | 0.08 | 0.08 | 51 | 1004.4 |
| 20260510003038 | 64 | 231 | 1.0 | 5.0 | 0.00 | 0.08 | 0.08 | 48 | 1004.2 |
| 20260510001537 | 65 | 292 | 2.0 | 8.0 | 0.00 | 0.08 | 0.08 | 46 | 1004.0 |
| 20260510000037 | 65 | 224 | 4.0 | 10.0 | 0.00 | 0.08 | 0.08 | 45 | 1003.8 |
| 20260509234536 | 66 | 279 | 5.0 | 14.0 | 0.00 | 0.08 | 0.08 | 43 | 1003.9 |
| 20260509233041 | 67 | 285 | 8.0 | 16.0 | 0.00 | 0.08 | 0.08 | 43 | 1003.7 |
| 20260509231546 | 67 | 146 | 8.0 | 17.0 | 0.00 | 0.08 | 0.08 | 41 | 1003.6 |
| 20260509230040 | 67 | 309 | 6.0 | 19.0 | 0.00 | 0.08 | 0.08 | 41 | 1003.6 |
| 20260509224537 | 68 | 8 | 10.0 | 22.0 | 0.00 | 0.08 | 0.08 | 41 | 1003.6 |
| 20260509223037 | 68 | 273 | 6.0 | 22.0 | 0.00 | 0.08 | 0.08 | 39 | 1003.4 |
| 20260509221539 | 68 | 242 | 13.0 | 28.0 | 0.00 | 0.08 | 0.08 | 38 | 1003.2 |
| 20260509220038 | 68 | 291 | 13.0 | 25.0 | 0.00 | 0.08 | 0.08 | 38 | 1002.9 |
| 20260509214534 | 69 | 277 | 8.0 | 25.0 | 0.00 | 0.08 | 0.08 | 38 | 1002.9 |
| 20260509213057 | 69 | 240 | 6.0 | 18.0 | 0.00 | 0.08 | 0.08 | 40 | 1002.4 |
| 20260509211606 | 69 | 336 | 9.0 | 20.0 | 0.00 | 0.08 | 0.08 | 41 | 1002.3 |
| 20260509210037 | 68 | 273 | 4.0 | 17.0 | 0.00 | 0.08 | 0.08 | 45 | 1002.5 |
| 20260509204544 | 67 | 272 | 7.0 | 14.0 | 0.00 | 0.08 | 0.08 | 47 | 1002.4 |
| 20260509203042 | 66 | 273 | 6.0 | 11.0 | 0.00 | 0.08 | 0.08 | 50 | 1002.7 |
| 20260509201534 | 65 | 274 | 6.0 | 17.0 | 0.00 | 0.08 | 0.08 | 51 | 1003.1 |
| 20260509200032 | 65 | 273 | 5.0 | 15.0 | 0.00 | 0.08 | 0.08 | 52 | 1003.5 |
| 20260509194539 | 65 | 290 | 5.0 | 17.0 | 0.00 | 0.08 | 0.08 | 55 | 1003.1 |
| 20260509193040 | 65 | 252 | 4.0 | 11.0 | 0.08 | 0.08 | 0.08 | 61 | 1003.0 |
| 20260509191537 | 63 | 285 | 4.0 | 9.0 | 0.08 | 0.08 | 0.08 | 73 | 1003.2 |
| 20260509190041 | 59 | 278 | 4.0 | 11.0 | 0.08 | 0.08 | 0.08 | 82 | 1003.0 |
| 20260509184538 | 58 | 259 | 7.0 | 19.0 | 0.08 | 0.08 | 0.08 | 75 | 1002.7 |
| 20260509183037 | 66 | 328 | 9.0 | 21.0 | 0.00 | 0.00 | 0.00 | 54 | 1002.6 |
| 20260509181537 | 67 | 245 | 8.0 | 25.0 | 0.00 | 0.00 | 0.00 | 54 | 1002.1 |
| 20260509180037 | 68 | 245 | 7.0 | 23.0 | 0.00 | 0.00 | 0.00 | 53 | 1002.1 |
| 20260509174534 | 67 | 289 | 9.0 | 19.0 | 0.00 | 0.00 | 0.00 | 53 | 1002.6 |
| 20260509173032 | 67 | 206 | 7.0 | 17.0 | 0.00 | 0.00 | 0.00 | 56 | 1002.5 |
| 20260509171533 | 67 | 183 | 7.0 | 16.0 | 0.00 | 0.00 | 0.00 | 56 | 1002.6 |
| 20260509170040 | 67 | 191 | 8.0 | 18.0 | 0.00 | 0.00 | 0.00 | 55 | 1002.7 |
| 20260509164536 | 66 | 162 | 8.0 | 17.0 | 0.00 | 0.00 | 0.00 | 57 | 1002.7 |
| 20260509163048 | 65 | 141 | 6.0 | 20.0 | 0.00 | 0.00 | 0.00 | 60 | 1002.8 |
| 20260509161534 | 65 | 281 | 4.0 | 15.0 | 0.00 | 0.00 | 0.00 | 59 | 1002.9 |
| 20260509160035 | 65 | 205 | 6.0 | 15.0 | 0.00 | 0.00 | 0.00 | 62 | 1003.1 |
| 20260509154533 | 63 | 34 | 4.0 | 15.0 | 0.00 | 0.00 | 0.00 | 65 | 1003.0 |
| 20260509153036 | 64 | 254 | 6.0 | 15.0 | 0.00 | 0.00 | 0.00 | 64 | 1003.0 |
| 20260509151536 | 62 | 252 | 8.0 | 19.0 | 0.00 | 0.00 | 0.00 | 64 | 1003.4 |
| 20260509150038 | 62 | 150 | 5.0 | 12.0 | 0.00 | 0.00 | 0.00 | 68 | 1003.4 |
| 20260509144534 | 61 | 196 | 5.0 | 14.0 | 0.00 | 0.00 | 0.00 | 71 | 1003.6 |
| 20260509143036 | 60 | 88 | 4.0 | 11.0 | 0.00 | 0.00 | 0.00 | 75 | 1003.6 |
| 20260509141537 | 59 | 207 | 4.0 | 13.0 | 0.00 | 0.00 | 0.00 | 77 | 1003.8 |
| 20260509140039 | 57 | 132 | 4.0 | 10.0 | 0.00 | 0.00 | 0.00 | 80 | 1003.9 |
| 20260509134548 | 55 | 117 | 3.0 | 10.0 | 0.00 | 0.00 | 0.00 | 84 | 1004.1 |
| 20260509133053 | 54 | 172 | 4.0 | 9.0 | 0.00 | 0.00 | 0.00 | 85 | 1004.6 |
| 20260509131534 | 54 | 119 | 2.0 | 10.0 | 0.00 | 0.00 | 0.00 | 88 | 1004.7 |
| 20260509130034 | 52 | 253 | 2.0 | 9.0 | 0.00 | 0.00 | 0.00 | 91 | 1005.0 |
| 20260509124538 | 51 | 235 | 3.0 | 12.0 | 0.00 | 0.00 | 0.00 | 92 | 1004.8 |
| 20260509123037 | 51 | 195 | 2.0 | 8.0 | 0.00 | 0.00 | 0.00 | 94 | 1004.7 |
| 20260509121539 | 50 | 154 | 3.0 | 9.0 | 0.00 | 0.00 | 0.00 | 95 | 1004.8 |
| 20260509120036 | 50 | 217 | 3.0 | 9.0 | 0.00 | 0.00 | 0.00 | 95 | 1004.8 |
| 20260509114550 | 49 | 230 | 2.0 | 7.0 | 0.00 | 0.00 | 0.00 | 95 | 1005.0 |
| 20260509113037 | 49 | 217 | 1.0 | 8.0 | 0.00 | 0.00 | 0.00 | 95 | 1004.9 |
| 20260509111536 | 49 | 238 | 1.0 | 7.0 | 0.00 | 0.00 | 0.00 | 95 | 1005.0 |
| 20260509110037 | 48 | 153 | 1.0 | 6.0 | 0.00 | 0.00 | 0.00 | 95 | 1004.8 |
| 20260509104536 | 48 | 0 | 1.0 | 6.0 | 0.00 | 0.00 | 0.00 | 95 | 1004.8 |
| 20260509103035 | 48 | 149 | 1.0 | 8.0 | 0.00 | 0.00 | 0.00 | 95 | 1004.9 |
| 20260509101534 | 48 | 238 | 1.0 | 4.0 | 0.00 | 0.00 | 0.00 | 95 | 1004.9 |
| 20260509100032 | 47 | 246 | 1.0 | 4.0 | 0.00 | 0.00 | 0.00 | 94 | 1005.0 |
| 20260509094537 | 47 | 0 | 0.0 | 2.0 | 0.00 | 0.00 | 0.00 | 94 | 1005.0 |
| 20260509093034 | 47 | 0 | 0.0 | 1.0 | 0.00 | 0.00 | 0.00 | 94 | 1005.1 |
| 20260509091536 | 47 | 0 | 0.0 | 1.0 | 0.00 | 0.00 | 0.00 | 93 | 1005.1 |
| 20260509090032 | 48 | 0 | 0.0 | 3.0 | 0.00 | 0.00 | 0.00 | 93 | 1005.2 |
| 20260509084539 | 48 | 119 | 0.0 | 2.0 | 0.00 | 0.00 | 0.00 | 93 | 1005.1 |
| 20260509083036 | 48 | 0 | 0.0 | 2.0 | 0.00 | 0.00 | 0.00 | 93 | 1005.2 |
| 20260509081534 | 48 | 174 | 0.0 | 4.0 | 0.00 | 0.00 | 0.00 | 93 | 1005.3 |